Погода в Рудянском

Россия / Свердловская область     56°59′00″N   61°56′34″E
темп.,
°C
ветер,
м/с
пор.,
м/с
влажн.,
%
обл.,
%
осадки,
мм/ч
давл.,
гПа
погр.,
м
8 мая, сб
сб823:00+13ююз275070 0.0 1018153
02:00+10юз35586 0.0 101875
05:00+9юз22589 0.0 101830
08:00+15ююз244045 0.0 1018265
11:00+20ююз332544 0.0 10171763
14:00+21ю3222100 0.0 10162591
17:00+21ю222197 0.0 10162676
20:00+17юз1235100 0.0 101611
9 мая, вс
вс923:00+12ссз2267100 0.0 101628
02:00+11с2266100 0.0 101641
05:00+10с2274100 0.0 101726
08:00+15ссв2356100 0.0 1017250
11:00+20в2333100 0.0 1017818
14:00+23вюв3524100 0.0 10173166
17:00+22в362479 0.1 10172509
20:00+18св2239100 0.0 101822
10 мая, пн
пн1023:00+13ссв225252 0.0 101927
02:00+12ююв1159100 0.0 102011
05:00+11в237378 0.0 102260
08:00+16вюв355291 0.0 1023413
11:00+21в33364 0.0 10231636
14:00+22в43285 0.0 10222417
17:00+22вюв43285 0.0 10222360
20:00+18юв3639100 0.0 1023143
11 мая, вт
вт1123:00+13ю354851 0.0 102482
02:00+12ююз3750100 0.0 1023134
05:00+12ююз2751100 0.0 1023171
08:00+15з3649100 0.0 1023283
11:00+14ссз2484100 0.7 1024313
14:00+17зсз465691 2.3 10231507
17:00+17с374065 2.4 10232051
20:00+13с59635 0.0 1026816
12 мая, ср
ср1223:00+8сз2285100 0.0 102734
02:00+7ссз25875 0.0 1027114
05:00+6ссз248512 0.0 102978
08:00+11ссз355160 0.0 1029409
11:00+17ссз463453 0.0 10271737
14:00+17ссз5636100 0.0 10271670
17:00+11ссз3671100 0.2 1028394
20:00+11ссз2577100 0.1 1028373